This is the latest recevied weather packets stored in our database for station/object CQ0XVC-11. If no packets are shown the sender has not sent any weather packets the latest 10 day(s).
| Time | Temp. | Humidity | Pressure | Rain* | Wind** | Luminosity | Snow |
|---|---|---|---|---|---|---|---|
| 1777507951 | 10.56° C | 80% | 1000.9 hPa | 0 mm | - | - | - |
| 1777507898 | 10.56° C | 80% | 1000.9 hPa | 0 mm | - | - | - |
| 1777507629 | 10.56° C | 72% | 1000.9 hPa | 0 mm | - | - | - |
| 1777507596 | 10.56° C | 72% | 1000.9 hPa | 0 mm | - | - | - |
| 1777507293 | 10.56° C | 74% | 1000.9 hPa | 0 mm | - | - | - |
| 1777506720 | 10.56° C | 74% | 1000.9 hPa | 0 mm | - | - | - |
| 1777506689 | 10.56° C | 74% | 1000.9 hPa | 0 mm | - | - | - |
| 1777506421 | 10.56° C | 73% | 1000.8 hPa | 0 mm | - | - | - |
| 1777506387 | 10.56° C | 73% | 1000.8 hPa | 0 mm | - | - | - |
| 1777506144 | 10.56° C | 75% | 1000.9 hPa | 0 mm | - | - | - |
| 1777506085 | 10.56° C | 75% | 1000.9 hPa | 0 mm | - | - | - |
| 1777505783 | 10.56° C | 72% | 1000.8 hPa | 0 mm | - | - | - |
| 1777505245 | 11.11° C | 72% | 1000.7 hPa | 0 mm | - | - | - |
| 1777505179 | 11.11° C | 72% | 1000.7 hPa | 0 mm | - | - | - |
| 1777504922 | 11.11° C | 71% | 1000.8 hPa | 0 mm | - | - | - |
| 1777504876 | 11.11° C | 71% | 1000.8 hPa | 0 mm | - | - | - |
| 1777504574 | 11.11° C | 71% | 1000.7 hPa | 0 mm | - | - | - |
| 1777504344 | 11.11° C | 71% | 1000.7 hPa | 0 mm | - | - | - |
| 1777504272 | 11.11° C | 71% | 1000.7 hPa | 0 mm | - | - | - |
| 1777504006 | 11.67° C | 68% | 1000.4 hPa | 0 mm | - | - | - |
| 1777503970 | 11.67° C | 68% | 1000.4 hPa | 0 mm | - | - | - |
| 1777503667 | 11.67° C | 69% | 1000.5 hPa | 0 mm | - | - | - |
| 1777503422 | 11.67° C | 68% | 1000.4 hPa | 0 mm | - | - | - |
| 1777503366 | 11.67° C | 68% | 1000.4 hPa | 0 mm | - | - | - |
| 1777503096 | 11.67° C | 70% | 1000.5 hPa | 0 mm | - | - | - |
* Rain since midnight (hover to see other rain measurements)
** Current wind speed in m/s (hover to see current wind gust speed)